Meteo Giornale » Osservazioni meteo Grecia » Skiathos Island
ore: 22:50 - Osservazioni Meteo Skiathos Island
Lat. 39° 11' N Lon. 23° 30' E Alt. 15 metri s.l.m.
25 °C
Sereno
Temp. 24 Ore
25 °C
30 °C
Nord
3.7 Km/h
Dew point 21 °C
Umidità 78 %
Visibilità 10 Km
Il sole sorge alle ore 06:55
Il sole tramonta alle ore 19:55
| Data e Ora | Cielo e Fenomeni | T °C | DP °C | Um. % | Pres. hPa | Vis. km | Vento km/h | |
|---|---|---|---|---|---|---|---|---|
| Ieri h: 22:50 | Sereno | 25 | 21 | 78 | 1014 | 10 | N 3.7 | |
| Ieri h: 22:20 | Sereno | 26 | 18 | 61 | 1014 | 10 | N 3.7 | |
| Ieri h: 21:50 | Sereno | 26 | 18 | 61 | 1014 | 10 | N 3.7 | |
| Ieri h: 21:20 | Sereno | 26 | 20 | 69 | 1014 | 10 | N 5.5 | |
| Ieri h: 20:50 | Sereno | 26 | 20 | 69 | 1014 | 10 | N 5.5 | |
| Ieri h: 20:20 | Sereno | 27 | 22 | 74 | 1014 | 10 | N 3.7 | |
| Ieri h: 19:50 | Sereno | 27 | 22 | 74 | 1014 | 10 | N 3.7 | |
| Ieri h: 19:20 | Sereno | 29 | 21 | 62 | 1014 | 10 | N 5.5 | |
| Ieri h: 18:50 | Sereno | 29 | 21 | 62 | 1014 | 10 | N 5.5 | |
| Ieri h: 18:20 | Sereno | 29 | 21 | 62 | 1014 | 10 | S/SO 7.4 | |
| Ieri h: 17:50 | Sereno | 29 | 21 | 62 | 1014 | 10 | S/SO 7.4 | |
| Ieri h: 17:20 | Sereno | 29 | 22 | 66 | 1014 | 10 | N 5.5 | |
| Ieri h: 16:50 | Sereno | 29 | 22 | 66 | 1014 | 10 | N 5.5 | |
| Ieri h: 16:20 | Sereno | 30 | 21 | 58 | 1014 | 10 | S/SE 9.3 | |
| Ieri h: 15:50 | Sereno | 30 | 21 | 58 | 1014 | 10 | S/SE 9.3 | |
| Ieri h: 15:20 | Sereno | 29 | 22 | 66 | 1014 | 10 | N 5.5 | |
| Ieri h: 14:50 | Sereno | 29 | 22 | 66 | 1014 | 10 | N 7.4 | |
| Ieri h: 14:20 | Sereno | 29 | 22 | 66 | 1014 | 10 | NE 14.8 | |
| Ieri h: 13:50 | Sereno | 29 | 23 | 70 | 1015 | 10 | NE 13 | |
| Ieri h: 13:20 | Sereno | 29 | 22 | 66 | 1015 | 10 | NE 14.8 | |
| Ieri h: 12:50 | Sereno | 29 | 22 | 66 | 1015 | 10 | NE 13 | |
| Ieri h: 12:20 | Sereno | 29 | 22 | 66 | 1015 | 10 | E/NE 9.3 | |
| Ieri h: 11:50 | Sereno | 29 | 21 | 62 | 1014 | 10 | NE 11.1 | |
| Ieri h: 11:20 | Sereno | 29 | 21 | 62 | 1014 | 10 | N 5.5 | |
| Ieri h: 10:50 | Sereno | 28 | 22 | 69 | 1014 | 10 | N 5.5 | |
| Ieri h: 10:20 | Sereno | 28 | 22 | 69 | 1014 | 10 | N 5.5 | |
| Ieri h: 09:50 | Sereno | 28 | 22 | 69 | 1014 | 10 | N 5.5 | |
| Ieri h: 09:20 | Sereno | 28 | 22 | 69 | 1014 | 10 | N 5.5 | |
| Ieri h: 08:50 | Sereno | 28 | 22 | 69 | 1014 | 10 | N 3.7 | |
| Ieri h: 08:20 | Sereno | 27 | 21 | 69 | 1014 | 10 | N 3.7 | |
| Ieri h: 07:50 | Sereno | 26 | 20 | 69 | 1014 | 10 | N 0 | |
| Ieri h: 07:20 | Sereno | 25 | 20 | 73 | 1014 | 10 | N 3.7 | |



